Location: New Frontier Mobile Home Park
(32.8448°N, 116.9675°W)
Time: 23:09:25
(UTC+00:00)

Cosmos 2346 Rocket - Pass Details

Date: 14 July 2020
Orbit: 936 x 981 km, 82.9° (Epoch: 05 August)

Event Time Altitude Azimuth Distance (km) Brightness Sun altitude
Rises 09:31:18 0° 356° (N) 3,641 8.3 -30.8°
Reaches altitude 10° 09:33:50 10° 358° (N) 2,685 7.5 -30.6°
Maximum altitude 09:39:57 74° 83° (E) 985 4.5 -30.0°
Enters shadow 09:40:10 73° 102° (ESE) 988 4.4 -30.0°
